CZ-4C DEB, 45484

Orbit data source: Space-Track

CZ-4C DEB, 45484 is space debris in LEO originally from a launch on Tue, 10 Apr 2018 UTC launched from the Jiuquan Satellite Launch Center, China (JSC). Debris objects in space refer to the collection of defunct objects orbiting the Earth. Examples of debris include non-operational satellites, rocket bodies, and fragments generated from explosions, collisions, or faulty payload assembly.

Loading next visibility...
Identifier
45484, 2018-034M
Orbit
LEO
Country
Flag of CNCN / PRC
Related business
Manufacturer
Unknown
Mission
Spacecraft
Bus & Motor
Unknown
Mass
Unknown
Launch date (UTC)
2018-04-10 (8 years ago)
Launch vehicle
Unknown
Launch site
Jiuquan Satellite Launch Center, China (JSC)
Object type
Payload
Rocket body
Debris
Shape & HBR
Unknown shape, 0.1 m
Radar Cross Section
Small (<0.1 m²)

Expand to show TLE details & history
Last TLE update: 4 days ago

TLE from 4 days ago
0 CZ-4C DEB
1 45484U 18034M   26169.57717356 -.00000068  00000-0  30925-4 0  9994
2 45484  63.3877 118.5228 0265959   8.7436 351.8089 13.42943503367590
Epoch: 2026-06-18T13:51Z
TLE epoch observation values (Epoch: 2026-06-18T13:51:07.795Z)
Latitude
0.00002°
Longitude
3.92182°
Altitude
903.376 km
Speed
7.498 km/s
True Right ascension
07h 54m 05s
True Declination
0° 00' 00"
Sunlit
Object was in daylight at epoch
Visualization orbit readout
Latitude
Unknown
Longitude
Unknown
Altitude
Unknown
Speed
Unknown
Apparent Right ascension
Unknown
Apparent Declination
Unknown
Sunlit
N/A
Visualization observer readout
Local Sidereal Time
23:18:39
Azimuth
Unknown
Elevation
Unknown
Doppler factor
Unknown
Orbital elements
Apogee altitude
1,295.978 km
Perigee altitude
898.353 km
Semi-major axis
7,475.303 km
Eccentricity
0.0266
Inclination
63.3877°
RAAN
118.5228°
Arg. of periapsis
8.7436°
True anomaly
351.35993°
Mean anomaly
351.8089°
Eccentric anomaly
351.58592°
Mean motion
3.35815 °/min
Orbital period
107.2 mins
BSTAR
0.000030925
Loading maneuver chart data...
Computing Atmospheric mass density...
Loading historical data...
Loading historical data...
Loading historical data...
Loading historical data...
Loading historical data...
Loading historical data...
Loading historical data...

Documentation

Showing up to 5 results
|